Time,TemperatureF,DewpointF,PressureIn,WindDirection,WindDirectionDegrees,WindSpeedMPH,WindSpeedGustMPH,Humidity,HourlyPrecipIn,Conditions,Clouds,dailyrainin,SolarRadiationWatts/m^2,SoftwareType,DateUTC
2013-03-01 00:02:00,30.0,27.0,-100.00,WNW,286,3.0,7.0,90,0.00,,,0.16,0.000000,,2013-03-01 05:02:00,
2013-03-01 00:33:00,30.0,28.0,-100.00,WNW,289,4.0,7.0,92,0.00,,,0.16,0.000000,,2013-03-01 05:33:00,
2013-03-01 00:42:00,30.0,28.0,-100.00,WNW,289,4.0,7.0,92,0.00,,,0.16,0.000000,,2013-03-01 05:42:00,
2013-03-01 00:53:00,30.0,28.0,-100.00,WNW,289,4.0,7.0,92,0.00,,,0.16,0.000000,,2013-03-01 05:53:00,
2013-03-01 01:02:00,30.0,28.0,-100.00,WNW,289,4.0,7.0,92,0.00,,,0.16,0.000000,,2013-03-01 06:02:00,
2013-03-01 01:32:00,29.0,26.0,-100.00,WNW,294,5.0,9.0,90,0.00,,,0.16,0.000000,,2013-03-01 06:32:00,
2013-03-01 01:42:00,29.0,26.0,-100.00,WNW,294,5.0,9.0,90,0.00,,,0.16,0.000000,,2013-03-01 06:42:00,
2013-03-01 01:53:00,29.0,26.0,-100.00,WNW,294,5.0,9.0,90,0.00,,,0.16,0.000000,,2013-03-01 06:53:00,
2013-03-01 02:02:00,29.0,26.0,-100.00,WNW,294,5.0,9.0,90,0.00,,,0.16,0.000000,,2013-03-01 07:02:00,
2013-03-01 02:33:00,29.0,25.0,-100.00,WNW,301,5.0,10.0,85,0.00,,,0.16,0.000000,,2013-03-01 07:33:00,
2013-03-01 02:42:00,29.0,25.0,-100.00,WNW,301,5.0,10.0,85,0.00,,,0.16,0.000000,,2013-03-01 07:42:00,
2013-03-01 02:52:00,29.0,25.0,-100.00,WNW,301,5.0,10.0,85,0.00,,,0.16,0.000000,,2013-03-01 07:52:00,
2013-03-01 03:02:00,29.0,25.0,-100.00,WNW,301,5.0,10.0,85,0.00,,,0.16,0.000000,,2013-03-01 08:02:00,
2013-03-01 03:33:00,28.0,24.0,-100.00,WNW,300,4.0,8.0,84,0.00,,,0.16,0.000000,,2013-03-01 08:33:00,
2013-03-01 03:43:00,28.0,24.0,-100.00,WNW,300,4.0,8.0,84,0.00,,,0.16,0.000000,,2013-03-01 08:43:00,
2013-03-01 03:53:00,28.0,24.0,-100.00,WNW,300,4.0,8.0,84,0.00,,,0.16,0.000000,,2013-03-01 08:53:00,
2013-03-01 04:02:00,28.0,24.0,-100.00,WNW,300,4.0,8.0,84,0.00,,,0.16,0.000000,,2013-03-01 09:02:00,
2013-03-01 04:32:00,27.0,23.0,-100.00,WNW,299,5.0,7.0,86,0.00,,,0.16,0.000000,,2013-03-01 09:32:00,
2013-03-01 04:42:00,27.0,23.0,-100.00,WNW,299,5.0,7.0,86,0.00,,,0.16,0.000000,,2013-03-01 09:42:00,
2013-03-01 04:53:00,27.0,23.0,-100.00,WNW,299,5.0,7.0,86,0.00,,,0.16,0.000000,,2013-03-01 09:53:00,
2013-03-01 05:02:00,27.0,23.0,-100.00,WNW,299,5.0,7.0,86,0.00,,,0.16,0.000000,,2013-03-01 10:02:00,
2013-03-01 05:32:00,27.0,25.0,-100.00,NW,313,3.0,5.0,91,0.00,,,0.16,0.000000,,2013-03-01 10:32:00,
2013-03-01 05:42:00,27.0,25.0,-100.00,NW,313,3.0,5.0,91,0.00,,,0.16,0.000000,,2013-03-01 10:42:00,
2013-03-01 05:53:00,27.0,25.0,-100.00,NW,313,3.0,5.0,91,0.00,,,0.16,0.000000,,2013-03-01 10:53:00,
2013-03-01 06:02:00,27.0,25.0,-100.00,NW,313,3.0,5.0,91,0.00,,,0.16,0.000000,,2013-03-01 11:02:00,
2013-03-01 06:32:00,27.0,24.0,-100.00,NW,309,3.0,5.0,90,0.00,,,0.16,0.000000,,2013-03-01 11:32:00,
2013-03-01 06:42:00,27.0,24.0,-100.00,NW,309,3.0,5.0,90,0.00,,,0.16,0.000000,,2013-03-01 11:42:00,
2013-03-01 06:53:00,27.0,24.0,-100.00,NW,309,3.0,5.0,90,0.00,,,0.16,0.000000,,2013-03-01 11:53:00,
2013-03-01 07:02:00,27.0,24.0,-100.00,NW,309,3.0,5.0,90,0.00,,,0.16,0.000000,,2013-03-01 12:02:00,
2013-03-01 07:33:00,26.0,23.0,-100.00,NW,315,4.0,9.0,89,0.00,,,0.16,0.000000,,2013-03-01 12:33:00,
2013-03-01 07:42:00,26.0,23.0,-100.00,NW,315,4.0,9.0,89,0.00,,,0.16,0.000000,,2013-03-01 12:42:00,
2013-03-01 07:52:00,26.0,23.0,-100.00,NW,315,4.0,9.0,89,0.00,,,0.16,0.000000,,2013-03-01 12:52:00,
2013-03-01 08:01:00,26.0,23.0,-100.00,NW,315,4.0,9.0,89,0.00,,,0.16,0.000000,,2013-03-01 13:01:00,
2013-03-01 08:32:00,26.0,23.0,-100.00,NW,318,4.0,5.0,87,0.00,,,0.16,19.000000,,2013-03-01 13:32:00,
2013-03-01 08:42:00,26.0,23.0,-100.00,NW,318,4.0,5.0,87,0.00,,,0.16,19.000000,,2013-03-01 13:42:00,
2013-03-01 08:52:00,26.0,23.0,-100.00,NW,318,4.0,5.0,87,0.00,,,0.16,19.000000,,2013-03-01 13:52:00,
2013-03-01 09:02:00,26.0,23.0,-100.00,NW,318,4.0,5.0,87,0.00,,,0.16,19.000000,,2013-03-01 14:02:00,
2013-03-01 09:32:00,27.0,22.0,-100.00,NW,318,3.0,4.0,81,0.00,,,0.16,81.000000,,2013-03-01 14:32:00,
2013-03-01 09:42:00,27.0,22.0,-100.00,NW,318,3.0,4.0,81,0.00,,,0.16,81.000000,,2013-03-01 14:42:00,
2013-03-01 09:52:00,27.0,22.0,-100.00,NW,318,3.0,4.0,81,0.00,,,0.16,81.000000,,2013-03-01 14:52:00,
2013-03-01 10:02:00,27.0,22.0,-100.00,NW,318,3.0,4.0,81,0.00,,,0.16,81.000000,,2013-03-01 15:02:00,
2013-03-01 10:32:00,28.0,22.0,-100.00,NW,307,3.0,5.0,78,0.00,,,0.16,120.000000,,2013-03-01 15:32:00,
2013-03-01 10:42:00,28.0,22.0,-100.00,NW,307,3.0,5.0,78,0.00,,,0.16,120.000000,,2013-03-01 15:42:00,
2013-03-01 10:52:00,28.0,22.0,-100.00,NW,307,3.0,5.0,78,0.00,,,0.16,120.000000,,2013-03-01 15:52:00,
2013-03-01 11:01:00,28.0,22.0,-100.00,NW,307,3.0,5.0,78,0.00,,,0.16,120.000000,,2013-03-01 16:01:00,
2013-03-01 11:32:00,28.0,21.0,-100.00,WNW,287,4.0,7.0,76,0.00,,,0.14,137.000000,,2013-03-01 16:32:00,
2013-03-01 11:42:00,28.0,21.0,-100.00,WNW,287,4.0,7.0,76,0.00,,,0.14,137.000000,,2013-03-01 16:42:00,
2013-03-01 11:52:00,28.0,21.0,-100.00,WNW,287,4.0,7.0,76,0.00,,,0.14,137.000000,,2013-03-01 16:52:00,
2013-03-01 12:01:00,28.0,21.0,-100.00,WNW,287,4.0,7.0,76,0.00,,,0.14,137.000000,,2013-03-01 17:01:00,
2013-03-01 12:32:00,28.0,22.0,-100.00,WNW,285,4.0,7.0,77,0.00,,,0.11,148.000000,,2013-03-01 17:32:00,
2013-03-01 12:42:00,28.0,22.0,-100.00,WNW,285,4.0,7.0,77,0.00,,,0.11,148.000000,,2013-03-01 17:42:00,
2013-03-01 12:52:00,28.0,22.0,-100.00,WNW,285,4.0,7.0,77,0.00,,,0.11,148.000000,,2013-03-01 17:52:00,
2013-03-01 13:02:00,28.0,22.0,-100.00,WNW,285,4.0,7.0,77,0.00,,,0.11,148.000000,,2013-03-01 18:02:00,
2013-03-01 13:32:00,29.0,21.0,-100.00,WNW,299,5.0,8.0,71,0.00,,,0.08,227.000000,,2013-03-01 18:32:00,
2013-03-01 13:42:00,29.0,21.0,-100.00,WNW,299,5.0,8.0,71,0.00,,,0.08,227.000000,,2013-03-01 18:42:00,
2013-03-01 13:52:00,29.0,21.0,-100.00,WNW,299,5.0,8.0,71,0.00,,,0.08,227.000000,,2013-03-01 18:52:00,
2013-03-01 14:02:00,29.0,21.0,-100.00,WNW,299,5.0,8.0,71,0.00,,,0.08,227.000000,,2013-03-01 19:02:00,
2013-03-01 14:32:00,29.0,22.0,-100.00,NW,310,3.0,8.0,74,0.01,,,0.05,130.000000,,2013-03-01 19:32:00,
2013-03-01 14:42:00,29.0,22.0,-100.00,NW,310,3.0,8.0,74,0.01,,,0.05,130.000000,,2013-03-01 19:42:00,
2013-03-01 14:52:00,29.0,22.0,-100.00,NW,310,3.0,8.0,74,0.01,,,0.05,130.000000,,2013-03-01 19:52:00,
2013-03-01 15:01:00,29.0,22.0,-100.00,NW,310,3.0,8.0,74,0.01,,,0.05,130.000000,,2013-03-01 20:01:00,
2013-03-01 15:32:00,28.0,20.0,-100.00,NW,313,5.0,10.0,73,0.00,,,0.03,135.000000,,2013-03-01 20:32:00,
2013-03-01 15:42:00,28.0,20.0,-100.00,NW,313,5.0,10.0,73,0.00,,,0.03,135.000000,,2013-03-01 20:42:00,
2013-03-01 15:52:00,28.0,20.0,-100.00,NW,313,5.0,10.0,73,0.00,,,0.03,135.000000,,2013-03-01 20:52:00,
2013-03-01 16:02:00,28.0,20.0,-100.00,NW,313,5.0,10.0,73,0.00,,,0.03,135.000000,,2013-03-01 21:02:00,
2013-03-01 16:32:00,27.0,20.0,-100.00,NW,307,5.0,9.0,76,0.00,,,0.02,116.000000,,2013-03-01 21:32:00,
2013-03-01 16:42:00,27.0,20.0,-100.00,NW,307,5.0,9.0,76,0.00,,,0.02,116.000000,,2013-03-01 21:42:00,
2013-03-01 16:52:00,27.0,20.0,-100.00,NW,307,5.0,9.0,76,0.00,,,0.02,116.000000,,2013-03-01 21:52:00,
2013-03-01 17:01:00,27.0,20.0,-100.00,NW,307,5.0,9.0,76,0.00,,,0.02,116.000000,,2013-03-01 22:01:00,
2013-03-01 17:32:00,26.0,20.0,-100.00,NW,312,3.0,5.0,77,0.00,,,0.01,46.000000,,2013-03-01 22:32:00,
2013-03-01 17:42:00,26.0,20.0,-100.00,NW,312,3.0,5.0,77,0.00,,,0.01,46.000000,,2013-03-01 22:42:00,
2013-03-01 17:52:00,26.0,20.0,-100.00,NW,312,3.0,5.0,77,0.00,,,0.01,46.000000,,2013-03-01 22:52:00,
2013-03-01 18:01:00,26.0,20.0,-100.00,NW,312,3.0,5.0,77,0.00,,,0.01,46.000000,,2013-03-01 23:01:00,
2013-03-01 18:32:00,24.0,19.0,-100.00,WNW,302,5.0,10.0,81,0.00,,,0.01,10.000000,,2013-03-01 23:32:00,
2013-03-01 18:42:00,24.0,19.0,-100.00,WNW,302,5.0,10.0,81,0.00,,,0.01,10.000000,,2013-03-01 23:42:00,
2013-03-01 18:52:00,24.0,19.0,-100.00,WNW,302,5.0,10.0,81,0.00,,,0.01,10.000000,,2013-03-01 23:52:00,
2013-03-01 19:02:00,24.0,19.0,-100.00,WNW,302,5.0,10.0,81,0.00,,,0.01,10.000000,,2013-03-02 00:02:00,
2013-03-01 19:32:00,23.0,19.0,-100.00,WNW,296,4.0,8.0,83,0.00,,,0.01,0.000000,,2013-03-02 00:32:00,
2013-03-01 19:42:00,23.0,19.0,-100.00,WNW,296,4.0,8.0,83,0.00,,,0.01,0.000000,,2013-03-02 00:42:00,
2013-03-01 19:52:00,23.0,19.0,-100.00,WNW,296,4.0,8.0,83,0.00,,,0.01,0.000000,,2013-03-02 00:52:00,
2013-03-01 20:01:00,23.0,19.0,-100.00,WNW,296,4.0,8.0,83,0.00,,,0.01,0.000000,,2013-03-02 01:01:00,
2013-03-01 20:32:00,23.0,19.0,-100.00,WNW,299,5.0,9.0,83,0.00,,,0.01,0.000000,,2013-03-02 01:32:00,
2013-03-01 20:42:00,23.0,19.0,-100.00,WNW,299,5.0,9.0,83,0.00,,,0.01,0.000000,,2013-03-02 01:42:00,
2013-03-01 20:52:00,23.0,19.0,-100.00,WNW,299,5.0,9.0,83,0.00,,,0.01,0.000000,,2013-03-02 01:52:00,
2013-03-01 21:01:00,23.0,19.0,-100.00,WNW,299,5.0,9.0,83,0.00,,,0.01,0.000000,,2013-03-02 02:01:00,
2013-03-01 21:32:00,22.0,18.0,-100.00,NW,318,5.0,9.0,83,0.00,,,0.01,0.000000,,2013-03-02 02:32:00,
2013-03-01 21:42:00,22.0,18.0,-100.00,NW,318,5.0,9.0,83,0.00,,,0.01,0.000000,,2013-03-02 02:42:00,
2013-03-01 21:52:00,22.0,18.0,-100.00,NW,318,5.0,9.0,83,0.00,,,0.01,0.000000,,2013-03-02 02:52:00,
2013-03-01 22:02:00,22.0,18.0,-100.00,NW,318,5.0,9.0,83,0.00,,,0.01,0.000000,,2013-03-02 03:02:00,
2013-03-01 22:32:00,22.0,18.0,-100.00,WNW,297,4.0,10.0,83,0.00,,,0.01,0.000000,,2013-03-02 03:32:00,
2013-03-01 22:42:00,22.0,18.0,-100.00,WNW,297,4.0,10.0,83,0.00,,,0.01,0.000000,,2013-03-02 03:42:00,
2013-03-01 22:53:00,22.0,18.0,-100.00,WNW,297,4.0,10.0,83,0.00,,,0.01,0.000000,,2013-03-02 03:53:00,
2013-03-01 23:02:00,22.0,18.0,-100.00,WNW,297,4.0,10.0,83,0.00,,,0.01,0.000000,,2013-03-02 04:02:00,
2013-03-01 23:32:00,22.0,18.0,-100.00,WNW,297,3.0,5.0,86,0.00,,,0.01,0.000000,,2013-03-02 04:32:00,
2013-03-01 23:42:00,22.0,18.0,-100.00,WNW,297,3.0,5.0,86,0.00,,,0.01,0.000000,,2013-03-02 04:42:00,
2013-03-01 23:52:00,22.0,18.0,-100.00,WNW,297,3.0,5.0,86,0.00,,,0.01,0.000000,,2013-03-02 04:52:00,